Regional Weather Roundup
Issued by NWS

Home | Current Version | Previous Version | Text Only | Print | Product List | Glossary On
Versions: 1 2 3 4 5 6 7 8 9 10 11 12 13 14 15 16 17 18 19 20 21 22 23 24 25 26 27 28 29 30 31 32 33 34 35 36 37 38 39 40 41 42 43 44 45 46 47 48 49 50
000
ASUS43 KLOT 270708
RWRIL

ILLINOIS REGIONAL WEATHER ROUNDUP
NATIONAL WEATHER SERVICE CHICAGO/ROMEOVILLE IL
200 AM CDT TUE SEP 27 2016

NOTE: "FAIR" INDICATES FEW OR NO CLOUDS BELOW 12,000 FEET WITH NO
SIGNIFICANT WEATHER AND/OR OBSTRUCTIONS TO VISIBILITY.

* THESE STATIONS ARE NOT UNDER NWS QUALITY CONTROL. THEY ALSO MAY NOT
  REPORT WEATHER SUCH AS PRECIPITATION OR FOG.

ILZ001-002-007-009-015-016-024-270800-
NORTHWEST ILLINOIS

CITY           SKY/WX    TMP DP  RH WIND       PRES   REMARKS
MOLINE         CLEAR     54  43  66 SW9       29.95S
STERLING*      CLEAR     50  43  77 SW7       29.93S
SAVANNA*       CLEAR     57  41  56 W9G16     29.91S
$$

ILZ003-004-008-010-011-017-018-270800-
NORTH CENTRAL ILLINOIS

CITY           SKY/WX    TMP DP  RH WIND       PRES   REMARKS
ROCKFORD       CLEAR     54  41  61 SW8       29.91S
FREEPORT*      CLEAR     50  41  72 SW12      29.91S
ROCHELLE*      CLEAR     49  42  78 SW7       29.92S
DE KALB*       CLEAR     54  41  60 W13       29.91S
$$

ILZ005-006-012>014-019>023-270800-
NORTHEAST ILLINOIS

CITY           SKY/WX    TMP DP  RH WIND       PRES   REMARKS
CHICAGO-OHARE  CLEAR     55  38  52 SW9       29.88F
CHICAGO-MIDWAY CLEAR     57  39  51 SW12      29.90F
AURORA         CLEAR     52  41  66 SW8       29.91F
LANSING*       CLEAR     51  42  71 SW7       29.92S
JOLIET*        CLEAR     55  42  62 SW6       29.92F
WAUKEGAN       CLEAR     51  39  63 SW8       29.85S
DUPAGE AIRPORT CLEAR     51  39  63 SW10      29.89F
KANKAKEE*      CLEAR     49  42  77 SW8       29.95S
WHEELING       CLEAR     56  37  49 SW7       29.88F
MORRIS*        CLEAR     51  42  69 CALM      29.92F
ROMEOVILLE*    CLEAR     54  44  68 W9        29.92S
NORTHERLY ISL    N/A     58  37  45 S3          N/A
$$

LMZ740>746-270800-
SOUTHERN LAKE MICHIGAN

STATION/POSITION SKY/WX   TEMP    WIND        PRES    VSBY  WAVE
                          AIR SEA DIR/SP/G                  HT/PER
                          (F)     (DEG/KT/KT) (MB)    (MI)  (FT/S)
SOUTHERN BUOY              65 70  250/ 23/ 29 1008.8F         5/ 5
WILMETTE HARBOR            59 62  260/ 14/ 17   N/A           1/ 2
HARRISON CRIB              63     220/ 16/ 19   N/A
BURNHAM HARBOR             58     230/  6/  8   N/A
CALUMET HARBOR             58     210/  7/ 11 1012.3F
BURNS HARBOR               61     230/ 16/ 19 1013.2F
MICHIGAN CITY              60     200/ 14/ 16   N/A
MICHIGAN CITY 6N           64 67  250/ 17/ 21   N/A           4/ 4
ST. JOSEPH                 66 65  260/ 19/ 25 1011.4F         7/ 6
$$

ILZ025>027-034>036-040-047-049-050-058-095>099-270800-
WEST-CENTRAL ILLINOIS

CITY           SKY/WX    TMP DP  RH WIND       PRES   REMARKS
QUINCY         CLEAR     52  45  77 SW7       30.03F
GALESBURG*       N/A    N/A N/A N/A MISG        N/A
MACOMB*        CLEAR     53  46  75 W8        30.02F
JACKSONVILLE*  CLEAR     55  44  67 SW9       30.04R
PITTSFIELD*    PTCLDY    58  45  62 SW7       30.05S
$$

ILZ028>032-037-038-041>044-048-051>054-059>061-270800-
CENTRAL ILLINOIS

CITY           SKY/WX    TMP DP  RH WIND       PRES   REMARKS
PONTIAC        CLEAR     55  46  71 SW10      29.96F
BLOOMINGTON    CLEAR     53  42  66 SW9       30.00S
DECATUR        CLEAR     57  42  57 SW9       30.02F
PEORIA         CLEAR     55  45  68 W7        29.99S
LACON*         PTCLDY    58  41  53 SW7       29.95F
LINCOLN*       CLEAR     56  44  65 SW3       30.01S
SPRINGFIELD    CLEAR     53  44  71 SW5       30.03S
TAYLORVILLE    CLEAR     57  42  57 SW7       30.04S
$$

ILZ033-039-045-046-055>057-062-063-270800-
EAST-CENTRAL ILLINOIS

CITY           SKY/WX    TMP DP  RH WIND       PRES   REMARKS
CHAMPAIGN      PTCLDY    52  41  66 SW6       30.01S
RANTOUL*       CLEAR     55  43  64 SW7       29.99S
MATTOON        CLEAR     56  41  57 SW9       30.03S
PARIS*         CLEAR     53  43  68 CALM      30.03F
$$

ILZ079-100>102-270800-
SOUTHWEST ILLINOIS

CITY           SKY/WX    TMP DP  RH WIND       PRES   REMARKS
BELLEVILLE     CLEAR     53  47  83 SW3       30.06F
CAHOKIA*       CLEAR     52  47  83 CALM      30.07F
SPARTA*        CLEAR     54  47  77 SW3       30.09F
$$

ILZ064>066-069>071-074>076-080>082-084>086-088>090-092>094-270800-
SOUTH-CENTRAL ILLINOIS

CITY           SKY/WX    TMP DP  RH WIND       PRES   REMARKS
CARBONDALE     CLEAR     50  50 100 S3        30.09F
CAIRO*           N/A     50  50 100 CALM      30.09F FOG
EFFINGHAM*     CLEAR     49  49  99 CALM      30.07S
MARION         CLEAR     54  54 100 SW3       30.09F
MT. VERNON     CLEAR     46  43  87 CALM      30.08S
CENTRALIA*     CLEAR     50  48  91 CALM      30.07S
SALEM*         CLEAR     52  47  84 CALM      30.07S
METROPOLIS*    CLEAR     51  50  99 CALM      30.10S
$$

ILZ067-068-072-073-078-083-087-091-270800-
SOUTHEAST ILLINOIS

CITY           SKY/WX    TMP DP  RH WIND       PRES   REMARKS
LAWRENCEVILLE  CLEAR     51  46  83 CALM      30.06S
FLORA*         CLEAR     50  47  90 CALM      30.06F
FAIRFIELD*       N/A     49  49  99 CALM      30.06F
HARRISBURG*    CLEAR     50  49  99 CALM      30.09S
ROBINSON*      CLEAR     50  45  83 CALM      30.06S
CARMI*         PTCLDY    49  49  99 CALM      30.07S
$$

ABBREVIATIONS USED IN REMARKS
   TC - TEMPERATURE IN CELSIUS
  WCI - WIND CHILL INDEX
   HX - HEAT INDEX
  VSB - VISIBILITY
$$





USA.gov is the U.S. government's official web portal to all federal, state and local government web resources and services.